This is the latest recevied weather packets stored in our database for station/object Oberstadn. If no packets are shown the sender has not sent any weather packets the latest 10 day(s).
| Time | Temp. | Humidity | Pressure | Rain* | Wind** | Luminosity | Snow |
|---|---|---|---|---|---|---|---|
| 1778004131 | 16.67° C | 64% | 1007.3 hPa | 0 mm | - | - | - |
| 1778002330 | 17.78° C | 62% | 1007.1 hPa | 0 mm | - | - | - |
| 1778000530 | 18.33° C | 60% | 1007 hPa | 0 mm | - | - | - |
| 1777998731 | 18.89° C | 58% | 1007 hPa | 0 mm | - | - | - |
| 1777995130 | 16.67° C | 72% | 1007.1 hPa | 0 mm | - | - | - |
| 1777993336 | 16.67° C | 71% | 1007 hPa | 0 mm | - | - | - |
| 1777991532 | 16.11° C | 74% | 1007.3 hPa | 0 mm | - | - | - |
| 1777989730 | 16.11° C | 75% | 1007.6 hPa | 0 mm | - | - | - |
| 1777987930 | 16.67° C | 72% | 1007.5 hPa | 0 mm | - | - | - |
| 1777986130 | 17.22° C | 71% | 1007.8 hPa | 0 mm | - | - | - |
| 1777984330 | 17.78° C | 70% | 1007.8 hPa | 0 mm | - | - | - |
| 1777982530 | 18.33° C | 64% | 1008 hPa | 0 mm | - | - | - |
| 1777980730 | 18.89° C | 64% | 1008 hPa | 0 mm | - | - | - |
| 1777978931 | 18.89° C | 63% | 1007.7 hPa | 0 mm | - | - | - |
| 1777977131 | 18.89° C | 61% | 1007.8 hPa | 0 mm | - | - | - |
| 1777975332 | 18.33° C | 62% | 1008 hPa | 0 mm | - | - | - |
| 1777973532 | 18.33° C | 64% | 1008.1 hPa | 0 mm | - | - | - |
| 1777971732 | 18.33° C | 66% | 1008.1 hPa | 0 mm | - | - | - |
| 1777969931 | 17.78° C | 67% | 1008.4 hPa | 0 mm | - | - | - |
| 1777968131 | 17.78° C | 65% | 1008.4 hPa | 0 mm | - | - | - |
| 1777966330 | 15.56° C | 74% | 1008.7 hPa | 0 mm | - | - | - |
| 1777964532 | 15° C | 73% | 1009 hPa | 0 mm | - | - | - |
| 1777962731 | 12.78° C | 81% | 1009.2 hPa | 0 mm | - | - | - |
| 1777960932 | 8.89° C | 89% | 1009.5 hPa | 0 mm | - | - | - |
| 1777959131 | 7.22° C | 90% | 1009.5 hPa | 0 mm | - | - | - |
* Rain since midnight (hover to see other rain measurements)
** Current wind speed in m/s (hover to see current wind gust speed)